map of CPH home
Great Circle Mapper logo
CPH - Airport
Location
City:  Copenhagen, Denmark
Near (Alt.):København
Name:København Airport - Kastrup
ICAO / IATA:EKCH / CPH

Details
Type:Airport (Aerodrome, Airfield)
Latitude:55°37'05"N (55.617917)
Longitude:12°39'21"E (12.655972)
Elevation:17 ft (5 m)
Variation:3.35°E (WMM2015 magnetic declination)
0.15° annual change
Runways:3
Longest:11811 × 148 ft (3600 × 45 m), paved

Time
Time Zone:UTC+1 (DST+2)
Local Time:

Weather
METAR:EKCH 231550Z 31008KT 270V340 9999 BKN035 14/05 Q1019 NOSIG
TAF:EKCH 231121Z 2312/2412 30012KT 9999 SCT025= TAF EKBI 231108Z 2312/2412 30010KT 9999 SCT025
TEMPO 2312/2315 30015G25KT PROB40 2400/2405 3000 MIFG
BECMG 2406/2409 24010KT

Related Locations
Nearby:
Farthest:CHT: 11521 mi / 18541 km
Waitangi [Tuuta], Chatham Islands, NZ

Find:

   beyond  
but within

Other Information
Maps:
NOTAMs:
Links:
Sources:

  
flag of Denmark   

Sectional Chart

Flight Planning
at skyvector.com

Satellite Image

Google Maps Satellite View

 

Copyright © 2004-2015 Karl L. Swartz. All rights reserved.
The Great Circle Mapper name and logo are trademarks of the Great Circle Mapper.
All other trademarks mentioned herein belong to their respective owners.
Please see credits for attibutions and further copyright information.

  Follow gcmap on Facebook Follow gcmap on Twitter Follow gcmap on Google+

hCard Microformat

Geo Microformat